Home > Weather > Kennebunk > Past weeks

Flag for U.S.A. Weather for the Past 2 Weeks in Kennebunk, Maine, U.S.A.

Now
12 °F

Overcast.


Feels Like: 6 °F
Forecast: 13 / 33 °F
Wind: 3 mph from Northwest

Location: Sanford Municipal

Current Time: Feb 10, 2016 at 2:19:17 AM

Latest Report: Feb 10, 2016 at 1:55 AM


Visibility: 10 mi

Pressure: 29.58 "Hg

Humidity: 79%

Dew point: 7 °F

Location of KennebunkLocation

Historic Weather in Kennebunk — Graph

°F

Kennebunk Temperature Yesterday

Maximum temperature yesterday: 25 °F (at 12:15 PM)
Minimum temperature yesterday: 1 °F (at 11:55 PM)
Average temperature yesterday: 17 °F

High & Low Weather Summary for the Past Weeks

 TemperatureHumidityPressure
High57 °F (Feb 1, 11:35 AM)100% (Jan 26, 2:15 AM)30.42 "Hg (Jan 26, 2:15 AM)
Low1 °F (Feb 9, 11:55 PM)33% (Feb 1, 1:15 PM)29.36 "Hg (Jan 29, 1:15 PM)
Average32 °F66%29.93 "Hg
* Reported Jan 26 1:15 AM — Feb 10 1:15 AM, Kennebunk, Weather by CustomWeather, © 2016

Note: Actual official high and low records may vary slightly from our data, if they occured in-between our weather recording intervals... More about our weather records

Advertising

Kennebunk Weather History for the Previous 24 Hours

 ConditionsComfort  
Time TempWeatherWind HumidityBarometerVisibility
1:15 AM
Wed, Feb 10
10 °FOvercast.No wind72%29.59 "Hg10 mi
12:55 AM7 °FOvercast.3 mph85%29.58 "Hg10 mi
12:15 AM3 °FPassing clouds.No wind85%29.58 "Hg10 mi
11:55 PM
Tue, Feb 9
1 °FClear.No wind85%29.59 "Hg10 mi
11:35 PM3 °FClear.3 mph72%29.60 "Hg10 mi
11:15 PM3 °FClear.No wind85%29.60 "Hg10 mi
10:55 PM3 °FClear.No wind78%29.60 "Hg10 mi
10:35 PM3 °FClear.3 mph85%29.60 "Hg10 mi
9:55 PM7 °FPassing clouds.No wind78%29.61 "Hg10 mi
9:35 PM7 °FPassing clouds.No wind78%29.61 "Hg10 mi
9:15 PM7 °FPassing clouds.No wind85%29.61 "Hg10 mi
8:35 PM7 °FPassing clouds.3 mph85%29.61 "Hg10 mi
7:55 PM9 °FClear.No wind85%29.60 "Hg10 mi
7:15 PM12 °FClear.No wind85%29.61 "Hg10 mi
6:35 PM12 °FClear.No wind79%29.61 "Hg10 mi
5:55 PM16 °FClear.3 mph67%29.61 "Hg10 mi
5:15 PM19 °FClear.5 mph68%29.60 "Hg10 mi
4:35 PM21 °FPassing clouds.6 mph58%29.59 "Hg10 mi
3:55 PM25 °FPartly sunny.5 mph59%29.58 "Hg10 mi
3:35 PM25 °FScattered clouds.7 mph59%29.58 "Hg10 mi
3:15 PM25 °FSunny.9 mph54%29.58 "Hg10 mi
2:55 PM25 °FSunny.9 mph54%29.58 "Hg10 mi
2:35 PM25 °FPassing clouds.8 mph63%29.58 "Hg10 mi
2:15 PM25 °FPassing clouds.6 mph63%29.59 "Hg10 mi
1:55 PM25 °FSunny.8 mph59%29.59 "Hg10 mi
1:35 PM25 °FSunny.7 mph54%29.59 "Hg10 mi
1:15 PM25 °FPassing clouds.3 mph63%29.61 "Hg10 mi
12:55 PM25 °FScattered clouds.9 mph59%29.62 "Hg10 mi
12:35 PM25 °FScattered clouds.7 mph54%29.63 "Hg10 mi
12:15 PM25 °FPassing clouds.8 mph63%29.64 "Hg10 mi
11:55 AM23 °FPartly sunny.7 mph63%29.65 "Hg10 mi
10:55 AM21 °FPartly sunny.7 mph58%29.70 "Hg10 mi
10:35 AM21 °FOvercast.8 mph68%29.71 "Hg9 mi
10:15 AM19 °FPartly sunny.3 mph68%29.72 "Hg10 mi
9:35 AM19 °FSunny.7 mph68%29.73 "Hg10 mi
9:15 AM18 °FSunny.7 mph73%29.74 "Hg10 mi
8:35 AM18 °FOvercast.5 mph68%29.74 "Hg1 mi
8:15 AM18 °FPassing clouds.8 mph73%29.69 "Hg10 mi
7:55 AM18 °FSunny.8 mph73%29.68 "Hg10 mi
7:35 AM18 °FPassing clouds.9 mph68%29.68 "Hg10 mi
6:55 AM16 °FScattered clouds.7 mph86%29.72 "Hg10 mi
6:35 AM16 °FClear.6 mph73%29.72 "Hg10 mi
5:35 AM16 °FPassing clouds.5 mph79%29.74 "Hg10 mi
5:15 AM16 °FPassing clouds.6 mph73%29.74 "Hg10 mi
4:35 AM18 °FMostly cloudy.6 mph79%29.75 "Hg10 mi
3:55 AM18 °FOvercast.6 mph79%29.75 "Hg7 mi
3:15 AM18 °FMostly cloudy.8 mph73%29.75 "Hg3 mi
2:55 AM18 °FOvercast.7 mph73%29.75 "Hg2 mi
2:35 AM18 °FOvercast.7 mph93%29.76 "Hg3 mi
2:15 AM18 °FOvercast.8 mph79%29.76 "Hg4 mi
Weather by CustomWeather, © 2016

See weather overviewHow to use our weather pages